OpenBCM V2.0.3 (Linux)

Packet Radio Mailbox

IZ3LSV

[San Dona' di P. JN]

 Login: GUEST





  
CX2SA  > KEPS     08.05.26 02:26l 321 Lines 15305 Bytes #43 (0) @ AMSAT
BID : ORB26128.1
Read: GUEST
Subj: 2Line Orbital Elements 26128.AMSAT
Path: IZ3LSV<IK6IHL<IK7NXU<HB9ON<DK0WUE<PI8ZTM<OZ5BBS<CX2SA
Sent: 260508/0024Z @:CX2SA.SAL.URY.SOAM #:64817 [Salto] FBB7.00e $:ORB26128.1
From: CX2SA@CX2SA.SAL.URY.SOAM
To  : KEPS@AMSAT


QST de W1STR

AMSAT Orbital Elements for Amateur Satellites in TLE Format
>From Orbital Analysis Office
New England Sci-Tech STEM Education Center
Natick MA May 08, 2026
To all radio amateurs


These element sets describe the orbits of various satellites
in use by the amateur radio community. For details see:
www.amsat.org/keplerian-elements-formats/

A daily update of element sets is available at:
www.amsat.org/tle/daily-bulletin.txt
or without bulletin text:
www.amsat.org/tle/dailytle.txt


AO-07
1 07530U 74089B   26127.78991574 -.00000046  00000-0  30184-5 0  9993
2 07530 101.9921 140.6130 0012079 206.6265 325.8627 12.53697400355453
UO-11
1 14781U 84021B   26127.81360631  .00001014  00000-0  10901-3 0  9992
2 14781  97.8033  93.8498 0006693 328.3521  31.7294 14.90688394251110
AO-27
1 22825U 93061C   26127.79346627  .00000084  00000-0  48906-4 0  9993
2 22825  98.6894 195.2175 0007765 212.1741 147.8968 14.30931234701223
FO-29
1 24278U 96046B   26127.57219433 -.00000043  00000-0 -68262-5 0  9998
2 24278  98.5285 341.9976 0349465 201.6829 156.9202 13.53272352467678
GO-32
1 25397U 98043D   26127.81503841  .00000052  00000-0  42511-4 0  9992
2 25397  99.0063 119.5581 0001268  23.4331 336.6904 14.24420390445584
ISS
1 25544U 98067A   26127.81231377  .00005524  00000-0  10783-3 0  9998
2 25544  51.6307 139.9570 0007375  34.4297 325.7168 15.49136029565490
NO-44
1 26931U 01043C   26127.85829617  .00000090  00000-0  64657-4 0  9994
2 26931  67.0519 348.5814 0006346 263.8002  96.2377 14.31940411284673
SO-50
1 27607U 02058C   26127.76209222  .00001084  00000-0  14510-3 0  9992
2 27607  64.5523 254.0492 0075634 269.8415  89.4024 14.82961176258462
CO-55
1 27844U 03031E   26127.57396125  .00000259  00000-0  13101-3 0  9993
2 27844  98.6749 136.6424 0008530 308.3336  51.7076 14.24310430185897
RS-22
1 27939U 03042A   26127.81842522  .00000948  00000-0  15437-3 0  9993
2 27939  98.3471 311.0392 0012187  41.6020  85.6420 14.73396981209608
CO-65
1 32785U 08021C   26127.87221764  .00003915  00000-0  25115-3 0  9996
2 32785  97.8270 108.4710 0009649 155.1961 204.9732 15.09075373979111
CO-66
1 32791U 08021J   26127.70535264  .00013576  00000-0  45014-3 0  9992
2 32791  97.7533 123.7184 0005121  94.6930 265.4895 15.31385262981096
RS-30
1 32953U 08025A   26127.77894986  .00000028  00000-0  12701-3 0  9997
2 32953  82.5073  20.5750 0020471  41.2634 318.9988 12.43177953814676
SRMSAT
1 37841U 11058D   26127.80052163  .00000405  00000-0  75810-4 0  9995
2 37841  19.9731 303.9251 0011766 119.4007  16.2660 14.11566674752108
ZACUBE-1
1 39417U 13066B   26127.87666838  .00004007  00000-0  31384-3 0  9993
2 39417  97.8128  89.9961 0042619  28.7451 331.6108 15.00875905674685
Delfi-N3xt
1 39428U 13066N   26127.74748772  .00005479  00000-0  48413-3 0  9994
2 39428  97.8345  48.1098 0074692 342.8618  17.0081 14.94622180668581
GOMX-1
1 39430U 13066Q   26127.80376193  .00001878  00000-0  28841-3 0  9990
2 39430  97.6509 330.8119 0128111 206.6549 152.8035 14.69305195663987
LO-74
1 39440U 13066AA  26127.79982950  .00003216  00000-0  30142-3 0  9998
2 39440  97.8885  76.6250 0058504 159.7468 200.6091 14.93467111670968
AO-73
1 39444U 13066AE  26127.81175377  .00006674  00000-0  42051-3 0  9995
2 39444  97.8253  98.4376 0036020 344.0443  15.9647 15.08961820673570
DTUSAT-2
1 40030U 14033W   26127.74354095  .00005970  00000-0  32811-3 0  9992
2 40030  98.0870 122.9229 0008422  25.6058 334.5587 15.14491964646566
LILACSAT-2
1 40908U 15049K   26127.87806005  .00014159  00000-0  25281-3 0  9993
2 40908  97.4703 163.2190 0008113  52.8189 307.3801 15.50129939589504
Horyu-4
1 41340U 16012D   26127.86883811  .00140314  00000-0  82393-3 0  9994
2 41340  30.9895  10.1209 0006002 340.6173  19.4254 15.76711184564419
Lapan A3
1 41603U 16040E   26127.91629560  .00003442  00000-0  11068-3 0  9993
2 41603  97.1493 125.3955 0011186 150.8286 209.3583 15.32852489548640
CAS-2T
1 41847U 16066G   26127.79012120  .00000652  00000-0  10175-3 0  9993
2 41847  98.3826 203.9830 0340924 252.0766 104.2984 14.44584690498966
TechnoSat
1 42829U 17042E   26127.48785742  .00002321  00000-0  16862-3 0  9996
2 42829  97.4248 286.7135 0016366 229.0051 130.9761 15.04712390480588
AO-91
1 43017U 17073E   26127.58309639  .00007885  00000-0  34694-3 0  9991
2 43017  97.4756 355.6432 0154071 108.6232 253.1800 15.11980014459257
S-Net D
1 43186U 18014G   26127.81539388  .00004326  00000-0  22663-3 0  9996
2 43186  97.5387  32.8643 0009139 148.1078 212.0709 15.16296100452643
S-Net B
1 43187U 18014H   26127.62807883  .00004136  00000-0  21700-3 0  9994
2 43187  97.5391  32.6636 0009865 144.7936 215.3950 15.16264534452617
S-Net A
1 43188U 18014J   26127.68248753  .00004347  00000-0  22769-3 0  9996
2 43188  97.5402  32.9190 0009729 145.4437 214.7429 15.16301725452621
S-Net C
1 43189U 18014K   26127.63173341  .00003980  00000-0  20895-3 0  9992
2 43189  97.5420  32.9370 0011262 140.0486 220.1578 15.16255385451166
Ten-Koh
1 43677U 18084G   26127.77510502  .00001401  00000-0  10970-3 0  9999
2 43677  98.0784 318.4422 0007626 249.9078 110.1326 15.02768094410099
PO-101
1 43678U 18084H   26127.75429174  .00002730  00000-0  22300-3 0  9998
2 43678  98.1084 322.2335 0012341 310.7291  49.2859 15.00254143410157
QO-100
1 43700U 18090A   26127.69336468  .00000152  00000-0  00000+0 0  9992
2 43700   0.0087 279.3739 0001655 157.5059  64.0811  1.00272467 27277
MinXSS-2
1 43758U 18099A   26127.81964544  .00027408  00000-0  59487-3 0  9990
2 43758  97.4545 203.0056 0007974  61.7396 298.4656 15.44320558407893
AO-95
1 43770U 18099N   26127.82238190  .00008906  00000-0  35024-3 0  9999
2 43770  97.4406 188.2402 0010326 126.4935 233.7256 15.25844325407064
SNUSat 2
1 43782U 18099AA  26127.09775858  .00007234  00000-0  32661-3 0  9995
2 43782  97.4087 181.1263 0011930  83.1442 277.1151 15.21214343406784
SnugLite
1 43784U 18099AC  26127.57273979  .00008129  00000-0  31599-3 0  9990
2 43784  97.3893 182.2742 0004426  84.7292 275.4452 15.26298774407125
ITASat 1
1 43786U 18099AE  26127.10730397  .00005598  00000-0  27373-3 0  9995
2 43786  97.4056 179.4489 0014065 132.2034 228.0397 15.18530608406675
EAGLET 1
1 43790U 18099AJ  26127.57161727  .00003145  00000-0  18334-3 0  9999
2 43790  97.4258 178.3189 0012651 122.7981 237.4471 15.12628738406193
ESEO
1 43792U 18099AL  26127.53457590  .00001608  00000-0  12001-3 0  9990
2 43792  97.3994 166.6598 0013335 110.2225 250.0437 15.04115077405693
JO-97
1 43803U 18099AX  26127.62518522  .00011779  00000-0  37877-3 0  9994
2 43803  97.4152 190.3555 0006819  66.5360 293.6598 15.32384687407411
Suomi 100
1 43804U 18099AY  26127.86418189  .00008897  00000-0  33276-3 0  9995
2 43804  97.4210 188.4312 0011382  68.8650 291.3805 15.27500309407268
ISAT
1 43879U 18111D   26127.79720275  .00059131  00000-0  75725-3 0  9998
2 43879  97.5900  60.1318 0008553  93.9313 266.2921 15.58964479404869
UWE-4
1 43880U 18111E   26127.73076590  .00023812  00000-0  52780-3 0  9991
2 43880  97.5857  54.3410 0010684 106.8348 253.4072 15.43699555404533
Sparrow
1 43881U 18111F   26127.76208154  .00075794  00000-0  76816-3 0  9990
2 43881  97.6125  65.1067 0007618 115.4868 244.7180 15.64978071405032
Prox-1
1 44339U 19036A   26127.81140763  .00010253  00000-0  10167-2 0  9998
2 44339  23.9965  23.7450 0006410 285.5160  74.4631 14.89672762367449
Taurus 1
1 44530U 19059C   26127.86188492  .00004752  00000-0  77096-3 0  9994
2 44530  98.6394 290.2097 0009554  82.6225 277.6066 14.71665882352714
TO-108
1 44881U 19093C   26127.79078708  .00000334  00000-0  43853-4 0  9998
2 44881  97.7537 201.0069 0012520 215.2695 144.7693 14.86453274345418
RS-44
1 44909U 19096E   26127.89805267  .00000014  00000-0  16590-4 0  9994
2 44909  82.5248   6.4806 0216523 238.4583 119.5212 12.79748121297194
SALSAT
1 46495U 20068K   26127.58311435  .00005913  00000-0  21124-3 0  9993
2 46495  97.8866 128.1971 0011678  86.8461 273.4114 15.29205626309157
CSS (TIANHE-1)
1 48274U 21035A   26127.59792897  .00019425  00000-0  20743-3 0  9990
2 48274  41.4664 208.9614 0004935 350.6261   9.4486 15.63441094286820
CUTE
1 49263U 21088D   26127.76960603  .00162459  00000-0  98484-3 0  9991
2 49263  97.4199 223.6971 0000755 289.2032  70.9152 15.77080946256158
TeikyoSat 4
1 49396U 21102B   26127.54991815  .00001701  00000-0  11014-3 0  9996
2 49396  97.3704 158.6112 0013785  75.7967 284.4792 15.09365624246595
Z-Sat
1 49399U 21102E   26127.85876216  .00001928  00000-0  97848-4 0  9991
2 49399  97.3355 164.4085 0017564  33.6642 326.5704 15.17957374247327
KOSEN 1
1 49402U 21102H   26127.56620595  .00005181  00000-0  20210-3 0  9994
2 49402  97.3221 170.5229 0013373 359.1593   0.9620 15.26283410247825
HO-113
1 50466U 21131B   26127.86031609  .00000409  00000-0  14000-3 0  9991
2 50466  98.4954 220.4730 0003496 203.5961 156.5068 14.41318802229307
SNUGLITE 2
1 52899U 22065F   26127.64660394  .00000924  00000-0  18431-3 0  9999
2 52899  98.2148 272.5634 0008289 143.9061 216.2703 14.64271354205068
UmKA 1 (RS40S)
1 57172U 23091G   26127.82008765  .00004693  00000-0  21848-3 0  9999
2 57172  97.5073 186.6812 0011299 258.2840 101.7128 15.20363685157875
CubeBel-2 (EU11S)
1 57175U 23091K   26127.86077765  .00009662  00000-0  35356-3 0  9992
2 57175  97.5070 190.7436 0008611 253.0699 106.9596 15.28228832158141
RS-38S
1 57189U 23091Z   26127.86994796  .00012846  00000-0  38310-3 0  9990
2 57189  97.5104 196.5853 0007172 202.6722 157.4205 15.34765760158500
SONATE-2
1 59112U 24043Q   26127.65407748  .00027086  00000-0  39150-3 0  9994
2 59112  97.5500 275.6712 0006193 354.0212   6.0967 15.55892927121580
